Snowfall_Accumulation
0.0 0.0 0.0 0.0 0.0 0.0 0.0 0.0 20.1 0.0 0.0 9.7 16.6 14.7 0.6 0.0 0.0 0.0 0.0 0.0 0.0 0.7 0.7 0.3 1.2 2.3 1.1 0.0 0.2 0.7 0.5 3.9 5.3 0.1 0.0 0.0 0.0 2.9 5.4 29.2 25.7 15.0 12.6 23.2
0.0 0.0 0.0 0.0 0.0 0.0 0.0 4.9 7.1 0.0 0.0 29.4 12.3 1.3 0.6 0.3 0.0 0.0 1.1 0.7 0.0 0.2 0.3 1.2 0.9 1.6 0.0 0.7 1.1 1.2 1.4 4.4 9.3 2.0 0.8 0.0 2.8 2.9 3.5 7.1 18.6 23.1 28.3 26.2
0.0 0.0 0.0 0.0 0.0 0.0 0.0 9.2 31.6 2.4 0.0 2.0 3.5 1.6 1.3 0.6 0.0 0.1 0.0 1.0 0.0 1.0 2.2 0.6 1.1 1.9 0.9 2.5 2.5 0.2 0.0 2.4 3.6 8.7 1.6 1.2 4.3 1.8 2.4 8.5 22.7 12.6 12.7 12.9
0.0 0.0 0.0 0.0 0.0 0.0 0.0 14.0 18.0 0.0 19.0 6.5 4.2 5.0 2.3 1.1 1.3 0.0 0.0 0.8 0.2 0.9 3.6 1.3 1.7 1.7 3.9 3.2 0.0 0.3 3.5 6.0 4.3 2.3 0.8 0.8 3.0 3.3 2.4 6.7 3.6 10.8 8.1 5.6
0.0 0.0 0.0 0.0 0.0 0.0 0.0 38.0 7.3 1.2 2.8 1.5 6.9 5.0 4.8 2.7 2.0 5.4 3.5 4.2 1.6 1.0 2.3 0.9 2.4 2.4 1.4 4.3 0.1 2.1 2.1 7.8 6.2 10.2 0.7 2.3 5.4 4.6 2.4 5.2 4.1 4.5 4.0 2.8
0.0 0.0 0.0 0.0 0.0 0.0 3.8 3.5 0.0 3.1 1.3 0.8 4.7 5.1 4.1 5.0 6.5 0.7 0.6 2.2 2.6 3.0 1.1 0.1 0.1 0.0 0.0 0.0 0.8 1.8 5.8 12.0 12.4 13.9 1.4 2.0 10.5 8.1 5.7 4.5 1.8 1.4 1.4 1.3
0.0 0.0 0.0 0.0 0.0 0.0 0.0 0.0 0.0 5.5 9.4 2.7 2.0 0.7 0.1 2.7 4.0 13.6 1.7 0.6 2.1 0.0 0.0 0.0 0.0 0.0 0.0 0.0 0.0 1.2 7.7 9.5 7.9 11.3 3.6 15.9 6.7 2.5 1.7 0.8 0.6 0.3 0.2 0.5
0.0 0.0 0.0 0.0 0.0 0.0 0.0 0.0 0.0 3.6 8.0 0.2 1.6 1.0 0.9 0.0 1.5 4.8 5.9 2.1 0.1 0.0 0.0 2.0 4.3 2.6 2.1 0.1 0.6 1.6 2.9 4.7 10.0 11.9 7.3 3.1 1.8 0.3 0.6 3.6 2.7 0.3 0.4 0.5
0.0 0.0 0.0 0.0 0.0 0.0 0.0 0.0 0.0 0.2 8.0 0.9 0.1 1.0 0.3 0.7 1.6 0.3 1.1 0.0 0.0 0.0 1.1 6.8 14.0 7.8 3.5 2.5 0.7 0.1 0.8 2.3 6.0 6.9 9.9 6.7 0.2 0.0 0.0 0.0 9.7 0.5 0.2 0.0
0.0 0.0 0.0 0.0 0.0 0.0 0.0 0.0 0.0 0.2 12.9 0.0 0.0 1.7 1.3 0.7 1.5 1.4 0.1 0.0 0.1 0.0 6.2 14.6 11.7 5.2 0.3 2.9 1.7 2.4 4.3 11.4 16.6 8.8 8.9 0.7 0.5 0.1 0.0 8.8 8.7 2.4 1.0 2.5
0.0 0.0 0.0 0.0 0.0 0.0 0.0 0.0 0.0 0.0 10.8 0.0 0.0 0.0 0.0 0.3 0.4 3.1 0.3 3.2 1.4 3.1 7.8 7.3 7.7 9.1 5.3 4.9 0.8 1.0 2.3 10.9 11.4 8.7 18.2 9.4 0.0 0.1 3.8 2.6 2.6 4.1 5.6 8.4
0.0 0.0 0.0 0.0 0.0 0.0 0.0 0.3 0.0 0.0 0.7 0.5 0.0 0.0 0.0 0.0 0.0 0.5 1.1 1.4 4.0 5.9 7.0 5.8 2.7 6.3 2.2 6.0 9.8 0.3 4.6 3.2 6.0 6.1 5.5 1.8 0.6 1.2 1.5 0.7 2.9 3.9 4.6 5.0
0.0 0.0 0.0 0.0 0.0 0.0 0.0 1.0 0.0 0.0 5.3 0.7 0.0 0.0 0.0 0.0 0.0 0.0 0.6 0.0 0.2 1.7 0.4 5.9 4.7 6.6 0.3 7.0 5.0 3.4 4.0 1.5 3.5 3.1 3.7 1.7 1.0 0.7 1.4 2.3 4.6 4.2 3.7 4.1
0.0 0.0 0.0 0.0 0.0 0.0 0.0 0.0 0.0 0.0 0.0 11.2 0.7 0.0 0.0 0.0 0.0 0.0 0.0 0.0 0.0 0.0 0.4 4.7 3.8 4.6 0.4 5.3 3.6 3.7 6.4 3.4 3.5 7.1 8.0 1.3 2.7 4.5 4.2 4.3 4.1 4.2 4.4 4.0
0.0 0.0 0.0 0.0 0.0 0.0 0.0 0.0 0.0 0.0 0.2 8.1 1.7 0.0 0.0 0.0 0.0 0.0 0.0 0.0 0.4 1.6 2.7 4.2 3.1 0.0 2.1 4.5 2.4 4.0 4.3 9.2 7.8 10.1 5.9 5.8 6.7 5.8 4.4 4.1 4.1 2.8 1.7 1.7
0.0 0.0 0.0 0.0 0.0 0.0 0.0 33.6 2.4 0.0 0.0 7.1 10.4 0.0 0.0 0.0 0.0 0.0 0.0 0.0 0.2 2.2 3.4 1.8 0.5 0.0 1.6 11.9 7.6 5.5 6.7 8.0 6.0 6.4 5.2 5.0 5.0 4.1 3.0 2.7 2.9 1.9 1.1 0.7
0.0 0.0 0.0 0.0 0.0 0.0 6.2 2.6 0.1 0.0 0.0 6.3 12.4 2.6 0.0 0.0 0.0 0.0 0.0 0.0 2.6 4.7 4.3 3.4 0.4 0.1 2.7 12.3 12.3 7.6 7.6 7.0 5.0 3.3 2.1 3.5 3.5 3.2 1.6 1.0 0.9 0.5 0.1 0.0
0.0 0.0 0.0 0.0 0.0 0.0 1.1 0.0 0.0 0.0 0.3 1.4 14.0 8.4 8.7 0.0 0.8 2.5 0.0 1.3 2.3 3.8 3.8 1.9 1.2 2.4 4.5 17.3 7.5 4.9 3.9 3.8 2.6 2.0 0.7 0.5 0.2 0.0 0.0 0.0 0.0 0.0 0.0 0.0
0.0 0.0 0.0 0.0 2.7 6.8 0.0 0.0 0.0 0.0 0.0 7.4 2.9 6.3 19.0 2.7 3.0 1.6 1.1 1.2 10.6 0.5 4.1 2.1 1.6 5.5 13.7 12.1 3.9 2.4 1.1 1.6 1.4 0.0 0.0 0.0 0.0 0.0 0.0 0.2 0.2 0.3 0.6 0.8
0.0 1.0 12.6 55.5 3.0 0.0 0.0 0.0 12.2 8.2 1.9 2.6 3.7 0.8 5.2 2.1 4.9 4.5 5.3 1.9 3.1 5.4 1.3 0.8 5.4 8.2 3.2 1.7 1.0 0.5 0.3 0.7 0.3 0.1 0.1 0.1 0.1 0.2 0.3 0.6 0.7 1.5 1.7 1.2
0.0 12.3 19.0 0.0 0.0 0.0 7.8 27.9 16.4 7.2 5.4 0.5 1.0 0.2 3.9 0.7 7.0 6.0 1.9 8.0 1.9 6.9 2.3 2.7 6.2 8.0 7.0 1.0 0.5 0.3 0.4 0.0 0.1 0.3 0.5 0.3 0.7 0.8 1.2 2.5 2.7 3.2 2.6 3.5
0.0 0.0 0.0 0.0 7.7 10.9 16.5 14.4 8.3 4.0 2.7 1.4 0.9 0.5 0.4 0.6 0.8 2.6 3.1 5.1 8.6 18.7 5.2 8.6 10.9 12.3 2.8 0.1 0.7 0.9 0.6 0.5 0.9 1.0 2.9 1.5 1.6 1.4 1.5 2.2 2.7 3.1 2.9 5.3
0.0 0.5 5.8 6.5 11.2 15.4 10.4 10.1 6.7 4.7 2.2 1.6 0.6 2.5 0.8 1.9 0.7 7.6 3.8 11.0 12.7 6.3 16.6 10.5 10.1 5.5 2.7 1.4 1.0 1.6 1.9 2.4 3.2 3.3 2.5 2.7 2.5 2.7 2.2 4.1 5.2 6.0 8.8 11.6
4.7 6.7 11.0 6.9 6.3 6.7 7.1 7.3 6.6 3.5 2.5 2.2 1.1 1.5 3.9 3.6 4.1 8.1 11.7 12.4 7.7 12.5 13.0 10.9 7.0 6.0 5.7 4.2 3.8 2.6 3.8 3.9 3.0 3.8 3.6 5.6 7.5 9.9 11.1 11.0 12.5 11.3 12.7 15.0
8.2 4.2 3.5 7.8 7.8 5.7 6.1 5.6 4.1 3.2 3.6 3.2 2.5 3.6 3.2 6.0 9.1 8.2 7.8 9.9 10.0 8.3 17.2 11.0 9.8 6.9 6.2 6.2 6.7 7.0 7.6 8.0 8.2 8.9 9.0 10.9 11.2 9.5 12.0 12.9 11.7 10.0 10.4 10.8
4.0 6.1 9.4 7.2 8.0 10.7 8.9 6.5 6.2 4.1 5.5 4.3 3.1 7.3 9.6 12.4 9.1 6.8 7.4 5.0 10.7 15.4 10.4 11.0 9.8 9.4 10.0 9.9 9.1 9.8 9.8 9.5 9.9 10.4 10.1 9.7 9.8 9.2 10.2 9.8 9.3 9.1 7.2 7.6
5.6 13.2 12.6 11.3 9.1 14.7 12.7 9.8 7.7 3.9 3.4 5.6 3.5 7.1 8.1 3.9 5.9 7.6 5.9 11.8 11.8 12.1 11.8 10.9 10.6 10.9 12.2 12.3 11.1 10.6 9.1 8.5 9.0 8.9 8.7 9.0 9.2 7.2 5.3 6.4 8.5 5.6 4.6 3.8